Regional Weather Roundup
Issued by NWS

Home | Current Version | Previous Version | Graphics & Text | Print | Product List | Glossary On
Versions: 1 2 3 4 5 6 7 8 9 10 11 12 13 14 15 16 17 18 19 20 21 22 23 24 25 26 27 28 29 30 31 32 33 34 35 36 37 38 39 40 41 42 43 44 45 46 47 48 49 50
000
ASUS43 KTOP 111159
RWRKS

WEATHER ROUNDUP FOR KANSAS
NATIONAL WEATHER SERVICE GOODLAND KS
600 AM CST MON DEC 11 2017

NOTE:  "FAIR" INDICATES FEW OR NO CLOUDS BELOW 12,000 FEET WITH NO
SIGNIFICANT WEATHER AND/OR OBSTRUCTIONS TO VISIBILITY.

KSZ001>006-013>018-027>032-041>047-111300-
NORTHWEST KANSAS

CITY           SKY/WX    TMP DP  RH WIND       PRES   REMARKS
GOODLAND       CLOUDY    35   3  26 W16       30.23F WCI  25
6HR MIN TEMP:  30; 6HR MAX TEMP:  36;

HAYS           CLEAR     36   9  32 W12       30.15R WCI  28
HILL CITY      CLEAR     40   9  28 NW9       30.15S
6HR MIN TEMP:  36; 6HR MAX TEMP:  41;

RUSSELL        CLOUDY    30  12  47 SW8       30.12R
6HR MIN TEMP:  30; 6HR MAX TEMP:  38;

$$

KSZ061>065-074>080-084>089-111300-
SOUTHWEST KANSAS

CITY           SKY/WX    TMP DP  RH WIND       PRES   REMARKS
DODGE CITY     CLOUDY    33   6  32 NW16      30.19S WCI  23
6HR MIN TEMP:  31; 6HR MAX TEMP:  44;

GARDEN CITY    CLOUDY    29   5  36 NW14      30.22R WCI  18
6HR MIN TEMP:  22; 6HR MAX TEMP:  34;

GREAT BEND     CLEAR     34   8  33 W7        30.15F
LIBERAL        CLOUDY    29   8  41 NW13      30.24S WCI  19
$$

KSZ066>073-081>083-090>101-111300-
SOUTHEAST KANSAS

CITY           SKY/WX    TMP DP  RH WIND       PRES   REMARKS
CHANUTE        CLEAR     36  19  50 SW8       30.07F
6HR MIN TEMP:  32; 6HR MAX TEMP:  40;

COFFEYVILLE    CLEAR     33  23  66 S5        30.10F
6HR MIN TEMP:  29; 6HR MAX TEMP:  36;

HUTCHINSON     CLEAR     41  11  29 W14       30.11F
6HR MIN TEMP:  32; 6HR MAX TEMP:  41;

MEDICINE LODGE   N/A     28  14  55 NW7       30.16R
NEWTON         CLEAR     37  11  34 W10       30.10F WCI  30
PARSONS        CLEAR     24  21  88 S6        30.09F
6HR MIN TEMP:  23; 6HR MAX TEMP:  28;

WICHITA INTL   CLEAR     47  11  23 W16       30.12R
6HR MIN TEMP:  35; 6HR MAX TEMP:  48;

WICHITA JABRA  CLEAR     41  11  29 W14       30.11S
6HR MIN TEMP:  39; 6HR MAX TEMP:  47;

WINFIELD       CLOUDY    28  18  66 CALM      30.14S
6HR MIN TEMP:  25; 6HR MAX TEMP:  39;

$$

KSZ007>012-019>026-033>040-048>060-102>105-111300-
NORTHEAST KANSAS

CITY           SKY/WX    TMP DP  RH WIND       PRES   REMARKS
CONCORDIA      CLOUDY    36  13  38 W15       30.06R WCI  27
6HR MIN TEMP:  36; 6HR MAX TEMP:  42;

EMPORIA        CLEAR     41  13  31 W8        30.05R
6HR MIN TEMP:  41; 6HR MAX TEMP:  48;

LAWRENCE       CLEAR     24  18  77 W7        30.00F
6HR MIN TEMP:  20; 6HR MAX TEMP:  27;

MANHATTAN      CLEAR     33  16  49 CALM      30.04F
6HR MIN TEMP:  27; 6HR MAX TEMP:  40;

OLATHE IND     CLEAR     37  19  48 SW7       30.00F
6HR MIN TEMP:  28; 6HR MAX TEMP:  37;

OLATHE EXE     CLEAR     37  19  48 W6        29.99F
6HR MIN TEMP:  32; 6HR MAX TEMP:  39;

SALINA         CLEAR     37  12  35 W7        30.10R
6HR MIN TEMP:  37; 6HR MAX TEMP:  48;

TOPEKA BILLARD CLEAR     31  21  66 W7        30.01F
6HR MIN TEMP:  23; 6HR MAX TEMP:  33;

TOPEKA FORBES  CLEAR     45  17  32 W14       30.00F
6HR MIN TEMP:  29; 6HR MAX TEMP:  45;

$$



USA.gov is the U.S. government's official web portal to all federal, state and local government web resources and services.